When you browse on this site, cookies collect data to enhance your experience and personalize the content and advertising you see.
Visit our Privacy Policy to learn more. By continuing to use the site, you agree to this use of cookies and data.
  • In Latvia
  • List of Countries
  • For 7 days
  • Water Temperature
  • Satellite Maps
  • Weather Map
  • Weather Widgets
  • user-avatar
    Login

    Hourly Weather Eisenstadt

    Today, 19 April, Friday

    Time Temperature Precipitation Wind Pressure Humidity
    00:00 +9°C° 0 mm 1 mps 731 mmHg 72%
    01:00 +9°C° 0 mm 1 mps 731 mmHg 70%
    02:00 +9°C° 0 mm 1 mps 731 mmHg 71%
    03:00 +8°C° 0 mm 1 mps 732 mmHg 71%
    04:00 +8°C° 0 mm 1 mps 732 mmHg 72%
    05:00 +9°C° 0 mm 1 mps 732 mmHg 69%
    06:00 +11°C° 0 mm 1 mps 732 mmHg 67%
    07:00 +12°C° 0 mm 1 mps 732 mmHg 62%
    08:00 +14°C° 0 mm 1 mps 732 mmHg 55%
    09:00 +16°C° 0 mm 1 mps 733 mmHg 49%
    10:00 +19°C° 0 mm 1 mps 733 mmHg 42%
    11:00 +20°C° 0 mm 1 mps 732 mmHg 40%
    12:00 +20°C° 0 mm 1 mps 732 mmHg 38%
    13:00 +20°C° 0 mm 2 mps 732 mmHg 36%
    14:00 +20°C° 0 mm 2 mps 732 mmHg 37%
    15:00 +19°C° 0 mm 3 mps 731 mmHg 39%
    16:00 +19°C° 0 mm 3 mps 731 mmHg 41%
    17:00 +17°C° 0 mm 3 mps 731 mmHg 48%
    18:00 +15°C° 0 mm 2 mps 731 mmHg 55%
    19:00 +13°C° 0 mm 2 mps 730 mmHg 62%
    20:00 +13°C° 0 mm 2 mps 731 mmHg 63%
    21:00 +12°C° 0 mm 2 mps 731 mmHg 64%
    22:00 +10°C° 0 mm 2 mps 732 mmHg 64%
    23:00 +10°C° 0 mm 2 mps 732 mmHg 66%

    Tomorrow, 20 April, Saturday

    Time Temperature Precipitation Wind Pressure Humidity
    00:00 +9°C° 0 mm 2 mps 732 mmHg 67%
    01:00 +9°C° 0 mm 1 mps 732 mmHg 68%
    02:00 +9°C° 0 mm 1 mps 732 mmHg 71%
    03:00 +8°C° 0 mm 1 mps 732 mmHg 73%
    04:00 +7°C° 0 mm 0 mps 732 mmHg 75%
    05:00 +8°C° 0 mm 0 mps 732 mmHg 71%
    06:00 +9°C° 0 mm 0 mps 732 mmHg 67%
    07:00 +10°C° 0 mm 0 mps 732 mmHg 63%
    08:00 +13°C° 0 mm 1 mps 732 mmHg 55%
    09:00 +15°C° 0 mm 1 mps 732 mmHg 48%
    10:00 +16°C° 0 mm 2 mps 732 mmHg 41%
    11:00 +17°C° 0 mm 2 mps 732 mmHg 39%
    12:00 +18°C° 0 mm 2 mps 732 mmHg 37%
    13:00 +19°C° 0 mm 2 mps 731 mmHg 35%
    14:00 +18°C° 0 mm 2 mps 731 mmHg 36%
    15:00 +18°C° 0 mm 2 mps 730 mmHg 36%
    16:00 +18°C° 0 mm 2 mps 730 mmHg 37%
    17:00 +16°C° 0 mm 1 mps 730 mmHg 44%
    18:00 +14°C° 0 mm 1 mps 729 mmHg 51%
    19:00 +12°C° 0 mm 1 mps 729 mmHg 58%
    20:00 +11°C° 0 mm 1 mps 729 mmHg 59%
    21:00 +11°C° 0 mm 1 mps 729 mmHg 61%
    22:00 +10°C° 0 mm 1 mps 729 mmHg 62%
    23:00 +10°C° 0 mm 1 mps 729 mmHg 63%

    Day after tomorrow, 21 April, Sunday

    Time Temperature Precipitation Wind Pressure Humidity
    00:00 +9°C° 0 mm 1 mps 729 mmHg 64%
    01:00 +8°C° 0 mm 2 mps 728 mmHg 65%
    02:00 +9°C° 0 mm 1 mps 728 mmHg 65%
    03:00 +9°C° 0 mm 1 mps 728 mmHg 66%
    04:00 +8°C° 0 mm 1 mps 727 mmHg 66%
    05:00 +9°C° 0 mm 1 mps 727 mmHg 64%
    06:00 +11°C° 0 mm 1 mps 727 mmHg 62%
    07:00 +12°C° 0 mm 1 mps 727 mmHg 60%
    08:00 +14°C° 0 mm 1 mps 727 mmHg 55%
    09:00 +15°C° 0 mm 1 mps 727 mmHg 49%
    10:00 +18°C° 0 mm 1 mps 727 mmHg 44%
    11:00 +18°C° 0 mm 2 mps 727 mmHg 42%
    12:00 +18°C° 0 mm 2 mps 726 mmHg 41%
    13:00 +19°C° 0 mm 2 mps 726 mmHg 39%
    14:00 +18°C° 0 mm 2 mps 725 mmHg 41%
    15:00 +19°C° 0 mm 1 mps 725 mmHg 43%
    16:00 +19°C° 0 mm 1 mps 724 mmHg 45%
    17:00 +16°C° 0 mm 1 mps 724 mmHg 49%
    18:00 +14°C° 0 mm 1 mps 724 mmHg 54%
    19:00 +13°C° 0 mm 1 mps 723 mmHg 59%
    20:00 +12°C° 0 mm 1 mps 723 mmHg 59%
    21:00 +11°C° 0 mm 0 mps 723 mmHg 60%
    22:00 +10°C° 0 mm 0 mps 724 mmHg 61%
    23:00 +10°C° 0 mm 0 mps 723 mmHg 64%

    22 April, Monday

    Time Temperature Precipitation Wind Pressure Humidity
    00:00 +9°C° 0 mm 0 mps 723 mmHg 67%
    01:00 +8°C° 0 mm 0 mps 722 mmHg 70%
    02:00 +8°C° 0 mm 0 mps 722 mmHg 72%
    03:00 +8°C° 0 mm 1 mps 722 mmHg 74%
    04:00 +8°C° 0 mm 1 mps 721 mmHg 76%
    05:00 +9°C° 0 mm 1 mps 721 mmHg 73%
    06:00 +10°C° 0 mm 1 mps 721 mmHg 70%
    07:00 +10°C° 0 mm 2 mps 721 mmHg 67%
    08:00 +12°C° 0 mm 3 mps 721 mmHg 61%
    09:00 +14°C° 0 mm 4 mps 721 mmHg 55%
    10:00 +15°C° 0 mm 5 mps 720 mmHg 49%
    11:00 +16°C° 0 mm 6 mps 720 mmHg 46%
    12:00 +17°C° 0 mm 6 mps 720 mmHg 43%
    13:00 +18°C° 0 mm 7 mps 719 mmHg 40%
    14:00 +18°C° 0 mm 7 mps 719 mmHg 40%
    15:00 +18°C° 0 mm 7 mps 718 mmHg 41%
    16:00 +18°C° 0 mm 7 mps 718 mmHg 42%
    17:00 +16°C° 0 mm 6 mps 717 mmHg 50%
    18:00 +15°C° 0 mm 5 mps 717 mmHg 58%
    19:00 +13°C° 0 mm 4 mps 717 mmHg 66%
    20:00 +13°C° 0.1 mm 4 mps 717 mmHg 70%
    21:00 +12°C° 0.1 mm 4 mps 717 mmHg 74%
    22:00 +12°C° 0.1 mm 4 mps 718 mmHg 78%
    23:00 +11°C° 0.1 mm 4 mps 718 mmHg 79%

    23 April, Tuesday

    Time Temperature Precipitation Wind Pressure Humidity
    00:00 +11°C° 0.1 mm 4 mps 717 mmHg 80%
    01:00 +10°C° 0.1 mm 4 mps 717 mmHg 81%
    02:00 +10°C° 0.2 mm 4 mps 717 mmHg 83%
    03:00 +10°C° 0.2 mm 4 mps 717 mmHg 85%
    04:00 +10°C° 0.2 mm 3 mps 717 mmHg 86%
    05:00 +8°C° 1.3 mm 4 mps 717 mmHg 89%
    06:00 +8°C° 1.3 mm 4 mps 717 mmHg 92%
    07:00 +8°C° 1.3 mm 4 mps 717 mmHg 94%
    08:00 +8°C° 0.9 mm 4 mps 717 mmHg 94%
    09:00 +8°C° 0.9 mm 4 mps 717 mmHg 94%
    10:00 +7°C° 0.9 mm 4 mps 717 mmHg 93%
    11:00 +9°C° 0.4 mm 3 mps 717 mmHg 92%
    12:00 +10°C° 0.4 mm 3 mps 717 mmHg 91%
    13:00 +12°C° 0.4 mm 2 mps 717 mmHg 90%
    14:00 +12°C° 1.6 mm 2 mps 717 mmHg 91%
    15:00 +11°C° 1.6 mm 3 mps 717 mmHg 91%
    16:00 +12°C° 1.6 mm 3 mps 717 mmHg 92%
    17:00 +12°C° 1.9 mm 4 mps 717 mmHg 93%
    18:00 +12°C° 1.9 mm 4 mps 717 mmHg 94%
    19:00 +12°C° 1.9 mm 5 mps 717 mmHg 95%
    20:00 +10°C° 1.1 mm 5 mps 717 mmHg 95%
    21:00 +11°C° 1.1 mm 4 mps 718 mmHg 95%
    22:00 +11°C° 1.1 mm 4 mps 718 mmHg 95%
    23:00 +11°C° 0 mm 4 mps 718 mmHg 95%

    24 April, Wednesday

    Time Temperature Precipitation Wind Pressure Humidity
    00:00 +11°C° 0 mm 4 mps 718 mmHg 95%
    01:00 +11°C° 0 mm 4 mps 718 mmHg 95%
    02:00 +11°C° 0 mm 4 mps 718 mmHg 96%
    03:00 +10°C° 0 mm 3 mps 718 mmHg 96%
    04:00 +10°C° 0 mm 3 mps 718 mmHg 96%
    05:00 +11°C° 0 mm 4 mps 719 mmHg 95%
    06:00 +11°C° 0 mm 4 mps 719 mmHg 93%
    07:00 +12°C° 0 mm 5 mps 719 mmHg 92%
    08:00 +13°C° 0 mm 5 mps 719 mmHg 87%
    09:00 +14°C° 0 mm 5 mps 719 mmHg 83%
    10:00 +16°C° 0 mm 6 mps 720 mmHg 79%
    11:00 +17°C° 0 mm 6 mps 720 mmHg 73%
    12:00 +19°C° 0 mm 6 mps 720 mmHg 67%
    13:00 +20°C° 0 mm 7 mps 720 mmHg 61%
    14:00 +20°C° 0 mm 7 mps 720 mmHg 59%
    15:00 +21°C° 0 mm 7 mps 719 mmHg 57%
    16:00 +21°C° 0 mm 6 mps 719 mmHg 55%
    17:00 +19°C° 0 mm 6 mps 719 mmHg 61%
    18:00 +17°C° 0 mm 6 mps 719 mmHg 67%
    19:00 +15°C° 0 mm 5 mps 719 mmHg 72%
    20:00 +14°C° 0 mm 5 mps 719 mmHg 75%
    21:00 +14°C° 0 mm 5 mps 719 mmHg 78%
    22:00 +13°C° 0 mm 5 mps 720 mmHg 80%
    23:00 +12°C° 0 mm 5 mps 720 mmHg 81%
    Show more